Hot Springs, VA

11:08 PM EST on December 04, 2016 (GMT -0500)
Ingalls

Weather History for KHSP - November, 2013

Change the Weather History Date:

Wednesday, November 13, 2013

  Actual Average Record
Temperature  
Mean Temperature 22 °F -  
Max Temperature 30 °F 44 °F 62 °F (2010)
Min Temperature 15 °F 31 °F 14 °F (1996)
Degree Days  
Heating Degree Days 42    
Moisture  
Dew Point 10 °F    
Average Humidity 65    
Maximum Humidity 93    
Minimum Humidity 29    
Precipitation  
Precipitation 0.00 in - - ()
Sea Level Pressure  
Sea Level Pressure 30.35 in    
Wind  
Wind Speed 15 mph (WNW)    
Max Wind Speed 24 mph    
Max Gust Speed 36 mph    
Visibility 10 miles    
Events Snow    
Averages and records for this station are not official NWS values.
T = Trace of Precipitation, MM = Missing Value Source: NWS Daily Summary

Daily Weather History Graph

Daily Weather History Graph

Search for Another Location

Airport or City:

Trip Planner

Search our weather history database for the weather conditions in past years. The results will help you decide how hot, cold, wet, or windy it might be!

Date:

Astronomy

Nov. 13, 2013 Rise Set
Actual Time 6:58 AM EST 5:08 PM EST
Civil Twilight 6:30 AM EST 5:36 PM EST
Nautical Twilight 5:58 AM EST 6:08 PM EST
Astronomical Twilight 5:27 AM EST 6:39 PM EST
Moon 2:52 PM EST (11/13) 2:53 AM EST (11/13)
Length of Visible Light 11h 06m
Length of Day
10h 10m
Waxing Gibbous, 84% of the Moon is Illuminated
Nov 13
Waxing Gibbous
Nov 17
Full
Nov 25
Last Quarter
Dec 2
New
Dec 9
First Quarter

Hourly Weather History & Observations

Time (EST) Temp. Windchill Dew Point Humidity Pressure Visibility Wind Dir Wind Speed Gust Speed Precip Events Conditions
12:15 AM 17.6 °F 5.0 °F 15.8 °F 93% 30.31 in 5.0 mi WNW 11.5 mph 24.2 mph N/A Snow Light Snow
12:35 AM 17.6 °F 3.7 °F 15.8 °F 93% 30.30 in 10.0 mi WNW 13.8 mph 19.6 mph N/A Snow Light Snow
12:55 AM 17.6 °F 6.4 °F 15.8 °F 93% 30.30 in 10.0 mi NW 9.2 mph 19.6 mph N/A   Overcast
1:15 AM 17.6 °F 3.2 °F 15.8 °F 93% 30.30 in 2.5 mi NW 15.0 mph 27.6 mph N/A Snow Light Snow
1:35 AM 17.6 °F 4.3 °F 15.8 °F 93% 30.30 in 4.0 mi NW 12.7 mph 23.0 mph N/A Snow Light Snow
1:55 AM 17.6 °F 5.0 °F 15.8 °F 93% 30.30 in 7.0 mi WNW 11.5 mph 23.0 mph N/A Snow Light Snow
2:15 AM 17.6 °F 3.7 °F 14.0 °F 86% 30.29 in 10.0 mi WNW 13.8 mph 24.2 mph N/A Snow Light Snow
2:35 AM 15.8 °F -0.6 °F 12.2 °F 86% 30.29 in 10.0 mi WNW 18.4 mph 24.2 mph N/A   Mostly Cloudy
2:55 AM 15.8 °F -1.1 °F 12.2 °F 86% 30.29 in 10.0 mi WNW 19.6 mph 25.3 mph N/A Snow Light Snow
3:15 AM 15.8 °F 0.9 °F 12.2 °F 86% 30.28 in 10.0 mi WNW 15.0 mph 24.2 mph N/A Snow Light Snow
3:35 AM 15.8 °F -1.1 °F 10.4 °F 79% 30.28 in 10.0 mi WNW 19.6 mph 29.9 mph N/A   Scattered Clouds
3:55 AM 15.8 °F -1.5 °F 10.4 °F 79% 30.28 in 10.0 mi WNW 20.7 mph 33.4 mph N/A   Clear
4:15 AM 15.8 °F -2.3 °F 10.4 °F 79% 30.28 in 10.0 mi WNW 23.0 mph 35.7 mph N/A   Scattered Clouds
4:35 AM 15.8 °F -2.7 °F 10.4 °F 79% 30.29 in 10.0 mi WNW 24.2 mph 31.1 mph N/A   Mostly Cloudy
4:55 AM 15.8 °F -0.6 °F 10.4 °F 79% 30.29 in 10.0 mi NW 18.4 mph 25.3 mph N/A   Overcast
5:15 AM 15.8 °F -0.2 °F 10.4 °F 79% 30.30 in 10.0 mi NW 17.3 mph 26.5 mph N/A   Overcast
5:35 AM 15.8 °F 0.3 °F 10.4 °F 79% 30.30 in 10.0 mi WNW 16.1 mph 26.5 mph N/A Snow Light Snow
5:55 AM 15.8 °F 1.4 °F 10.4 °F 79% 30.30 in 10.0 mi WNW 13.8 mph 26.5 mph N/A Snow Light Snow
6:15 AM 15.8 °F 0.3 °F 12.2 °F 86% 30.32 in 10.0 mi NW 16.1 mph 24.2 mph N/A Snow Light Snow
6:35 AM 15.8 °F 2.1 °F 12.2 °F 86% 30.33 in 10.0 mi WNW 12.7 mph 23.0 mph N/A Snow Light Snow
6:55 AM 15.8 °F -0.6 °F 12.2 °F 86% 30.34 in 10.0 mi WNW 18.4 mph 24.2 mph N/A Snow Light Snow
7:15 AM 15.8 °F 0.9 °F 12.2 °F 86% 30.34 in 10.0 mi NW 15.0 mph 24.2 mph N/A Snow Light Snow
7:35 AM 15.8 °F 2.1 °F 10.4 °F 79% 30.35 in 10.0 mi NW 12.7 mph 23.0 mph N/A   Mostly Cloudy
7:55 AM 15.8 °F -0.2 °F 10.4 °F 79% 30.36 in 10.0 mi NW 17.3 mph 27.6 mph N/A   Mostly Cloudy
8:15 AM 15.8 °F 0.3 °F 10.4 °F 79% 30.36 in 10.0 mi NW 16.1 mph 26.5 mph N/A   Scattered Clouds
8:35 AM 17.6 °F 2.2 °F 10.4 °F 73% 30.36 in 10.0 mi WNW 17.3 mph 26.5 mph N/A   Clear
8:55 AM 17.6 °F 3.2 °F 12.2 °F 79% 30.37 in 10.0 mi NW 15.0 mph 24.2 mph N/A   Clear
9:15 AM 17.6 °F 0.9 °F 12.2 °F 79% 30.37 in 10.0 mi NW 20.7 mph 25.3 mph N/A   Clear
9:35 AM 19.4 °F 2.5 °F 10.4 °F 68% 30.37 in 10.0 mi NW 23.0 mph 27.6 mph N/A   Clear
9:55 AM 19.4 °F 5.5 °F 12.2 °F 74% 30.38 in 10.0 mi WNW 15.0 mph 23.0 mph N/A   Clear
10:15 AM 21.2 °F 6.8 °F 12.2 °F 68% 30.37 in 10.0 mi WNW 17.3 mph 23.0 mph N/A   Clear
10:35 AM 21.2 °F 7.8 °F 12.2 °F 68% 30.38 in 10.0 mi NW 15.0 mph 23.0 mph N/A   Clear
10:55 AM 23.0 °F 11.1 °F 10.4 °F 59% 30.38 in 10.0 mi WNW 12.7 mph 21.9 mph N/A   Clear
11:15 AM 24.8 °F 14.0 °F 10.4 °F 54% 30.39 in 10.0 mi NW 11.5 mph 16.1 mph N/A   Clear
11:35 AM 24.8 °F 13.4 °F 10.4 °F 54% 30.39 in 10.0 mi NW 12.7 mph 16.1 mph N/A   Clear
11:55 AM 26.6 °F 14.7 °F 10.4 °F 51% 30.38 in 10.0 mi West 15.0 mph - N/A   Clear
12:15 PM 28.4 °F 18.5 °F 10.4 °F 47% 30.38 in 10.0 mi NW 11.5 mph 19.6 mph N/A   Clear
12:35 PM 28.4 °F 18.5 °F 8.6 °F 43% 30.37 in 10.0 mi NW 11.5 mph 18.4 mph N/A   Clear
12:55 PM 28.4 °F 18.0 °F 6.8 °F 40% 30.37 in 10.0 mi NW 12.7 mph 20.7 mph N/A   Clear
1:15 PM 30.2 °F 19.8 °F 6.8 °F 37% 30.37 in 10.0 mi NNW 13.8 mph 19.6 mph N/A   Clear
1:35 PM 30.2 °F 19.3 °F 6.8 °F 37% 30.36 in 10.0 mi NW 15.0 mph 23.0 mph N/A   Clear
1:55 PM 30.2 °F 21.9 °F 6.8 °F 37% 30.35 in 10.0 mi NW 9.2 mph 20.7 mph N/A   Clear
2:15 PM 30.2 °F 18.5 °F 5.0 °F 34% 30.36 in 10.0 mi WNW 17.3 mph 23.0 mph N/A   Clear
2:35 PM 30.2 °F 19.8 °F 3.2 °F 32% 30.35 in 10.0 mi WNW 13.8 mph 19.6 mph N/A   Clear
2:55 PM 30.2 °F 20.2 °F 1.4 °F 29% 30.36 in 10.0 mi NW 12.7 mph 21.9 mph N/A   Clear
3:15 PM 30.2 °F 21.3 °F 3.2 °F 32% 30.36 in 10.0 mi NW 10.4 mph 20.7 mph N/A   Clear
3:35 PM 30.2 °F 20.2 °F 1.4 °F 29% 30.37 in 10.0 mi WNW 12.7 mph 21.9 mph N/A   Clear
3:55 PM 30.2 °F 18.5 °F 3.2 °F 32% 30.37 in 10.0 mi WNW 17.3 mph - N/A   Clear
4:15 PM 30.2 °F 21.3 °F 5.0 °F 34% 30.37 in 10.0 mi NW 10.4 mph - N/A Snow Light Snow
4:35 PM 28.4 °F 20.4 °F 5.0 °F 37% 30.38 in 10.0 mi NW 8.1 mph - N/A   Clear
4:55 PM 28.4 °F 19.7 °F 5.0 °F 37% 30.37 in 10.0 mi NW 9.2 mph - N/A   Clear
5:15 PM 26.6 °F 16.8 °F 5.0 °F 40% 30.37 in 10.0 mi WNW 10.4 mph - N/A   Clear
5:35 PM 26.6 °F 15.2 °F 8.6 °F 47% 30.37 in 10.0 mi WNW 13.8 mph - N/A   Clear
5:55 PM 26.6 °F 16.2 °F 12.2 °F 55% 30.38 in 10.0 mi West 11.5 mph - N/A   Clear
6:15 PM 24.8 °F 12.9 °F 12.2 °F 59% 30.37 in 10.0 mi West 13.8 mph - N/A   Clear
6:35 PM 24.8 °F 12.4 °F 12.2 °F 59% 30.38 in 10.0 mi West 15.0 mph - N/A   Clear
6:55 PM 23.0 °F 9.6 °F 14.0 °F 68% 30.38 in 10.0 mi West 16.1 mph - N/A   Clear
7:15 PM 23.0 °F 9.6 °F 14.0 °F 68% 30.37 in 10.0 mi West 16.1 mph - N/A   Clear
7:35 PM 21.2 °F 6.8 °F 12.2 °F 68% 30.37 in 10.0 mi West 17.3 mph - N/A   Clear
7:55 PM 21.2 °F 7.3 °F 12.2 °F 68% 30.37 in 10.0 mi West 16.1 mph - N/A   Clear
8:15 PM 21.2 °F 6.4 °F 12.2 °F 68% 30.36 in 10.0 mi West 18.4 mph - N/A   Clear
8:35 PM 21.2 °F 7.3 °F 12.2 °F 68% 30.36 in 10.0 mi West 16.1 mph - N/A   Clear
8:55 PM 21.2 °F 6.8 °F 12.2 °F 68% 30.36 in 10.0 mi West 17.3 mph - N/A   Clear
9:15 PM 21.2 °F 7.3 °F 12.2 °F 68% 30.37 in 10.0 mi West 16.1 mph - N/A   Clear
9:35 PM 21.2 °F 7.8 °F 12.2 °F 68% 30.36 in 10.0 mi West 15.0 mph - N/A   Clear
9:55 PM 21.2 °F 6.8 °F 10.4 °F 63% 30.36 in 10.0 mi West 17.3 mph - N/A   Clear
10:15 PM 21.2 °F 6.8 °F 10.4 °F 63% 30.35 in 10.0 mi West 17.3 mph - N/A   Clear
10:35 PM 21.2 °F 5.6 °F 10.4 °F 63% 30.35 in 10.0 mi West 20.7 mph - N/A   Clear
10:55 PM 21.2 °F 6.4 °F 10.4 °F 63% 30.34 in 10.0 mi West 18.4 mph - N/A   Clear
11:15 PM 21.2 °F 6.0 °F 10.4 °F 63% 30.35 in 10.0 mi West 19.6 mph - N/A   Clear
11:35 PM 23.0 °F 9.2 °F 10.4 °F 59% 30.35 in 10.0 mi West 17.3 mph - N/A   Clear
11:55 PM 24.8 °F 11.1 °F 8.6 °F 50% 30.35 in 10.0 mi West 18.4 mph - N/A   Clear